Weather History for Berlin, NH

Change the Weather History Date:

Wednesday, June 26, 2013

  Actual Average Record
Temperature  
Mean Temperature 68 °F -  
Max Temperature 77 °F 75 °F 93 °F (2003)
Min Temperature 62 °F 47 °F 48 °F (2001)
Cooling Degree Days 4    
Growing Degree Days 18 (Base 50)    
Moisture  
Dew Point 64 °F    
Average Humidity 91    
Maximum Humidity 100    
Minimum Humidity 67    
Precipitation  
Precipitation 0.01 in - - ()
Sea Level Pressure  
Sea Level Pressure 29.79 in    
Wind  
Wind Speed 0 mph (WSW)    
Max Wind Speed 6 mph    
Max Gust Speed -    
Visibility 5 miles    
Events Fog , Rain , Thunderstorm    
Averages and records for this station are not official NWS values.
T = Trace of Precipitation, MM = Missing Value Source: NWS Daily Summary

Daily Weather History Graph

Daily Weather History Graph

Search for Another Location

Airport:

Trip Planner

Search our weather history database for the weather conditions in past years. The results will help you decide how hot, cold, wet, or windy it might be!

Date:

Astronomy

Jun. 26, 2013 Rise Set
Actual Time 5:01 AM EDT 8:33 PM EDT
Civil Twilight 4:24 AM EDT 9:10 PM EDT
Nautical Twilight 3:35 AM EDT 9:59 PM EDT
Astronomical Twilight 2:32 AM EDT 11:02 PM EDT
Moon 10:44 PM EDT (6/26) 8:58 AM EDT (6/26)
Length of Visible Light 16h 46m
Length of Day
15h 32m
Waning Gibbous, 85% of the Moon is Illuminated
Jun 26
Waning Gibbous
Jun 30
Last Quarter
Jul 8
New
Jul 15
First Quarter
Jul 22
Full

Hourly Weather History & Observations

Time (EDT) Temp. Dew Point Humidity Pressure Visibility Wind Dir Wind Speed Gust Speed Precip Events Conditions
12:03 AM 66.2 °F 64.4 °F 94% 29.78 in 5.0 mi Calm Calm - N/A   Overcast
12:12 AM 66.2 °F 64.4 °F 94% 29.78 in 6.0 mi Calm Calm - N/A   Mostly Cloudy
12:52 AM 66.0 °F 64.9 °F 96% 29.77 in 4.0 mi Calm Calm - N/A   Scattered Clouds
1:15 AM 62.6 °F 62.6 °F 100% 29.78 in 2.5 mi Calm Calm - N/A   Mostly Cloudy
1:20 AM 64.4 °F 62.6 °F 94% 29.78 in 1.2 mi Calm Calm - N/A   Mostly Cloudy
1:23 AM 64.4 °F 62.6 °F 94% 29.78 in 0.8 mi Calm Calm - N/A   Mostly Cloudy
1:36 AM 64.4 °F 62.6 °F 94% 29.78 in 0.2 mi Calm Calm - N/A Fog Fog
1:52 AM 64.0 °F 64.0 °F 100% 29.76 in 0.2 mi Calm Calm - N/A Fog Fog
2:05 AM 64.4 °F 62.6 °F 94% 29.77 in 0.5 mi Calm Calm - N/A Fog Fog
2:16 AM 64.4 °F 62.6 °F 94% 29.77 in 2.0 mi Calm Calm - N/A   Overcast
2:19 AM 64.4 °F 62.6 °F 94% 29.77 in 1.2 mi Calm Calm - N/A   Overcast
2:27 AM 64.4 °F 64.4 °F 100% 29.77 in 0.5 mi Calm Calm - N/A Fog Fog
2:35 AM 64.4 °F 64.4 °F 100% 29.77 in 1.8 mi Calm Calm - N/A   Overcast
2:38 AM 64.4 °F 64.4 °F 100% 29.77 in 3.0 mi Calm Calm - N/A   Overcast
2:52 AM 64.9 °F 64.0 °F 97% 29.76 in 6.0 mi Calm Calm - N/A   Overcast
3:29 AM 64.4 °F 64.4 °F 100% 29.78 in 1.5 mi Calm Calm - N/A   Overcast
3:31 AM 64.4 °F 64.4 °F 100% 29.78 in 0.8 mi Calm Calm - N/A   Overcast
3:37 AM 64.4 °F 64.4 °F 100% 29.78 in 0.2 mi Calm Calm - N/A Fog Fog
3:52 AM 63.0 °F 63.0 °F 100% 29.77 in 0.2 mi Calm Calm - N/A Fog Fog
4:11 AM 64.4 °F 62.6 °F 94% 29.78 in 0.5 mi Calm Calm - N/A Fog Fog
4:43 AM 64.4 °F 64.4 °F 100% 29.78 in 1.0 mi Calm Calm - N/A   Mist
4:52 AM 64.0 °F 64.0 °F 100% 29.77 in 1.0 mi Calm Calm - N/A   Mist
5:00 AM 64.4 °F 64.4 °F 100% 29.79 in 2.0 mi Calm Calm - N/A   Overcast
5:10 AM 64.4 °F 64.4 °F 100% 29.79 in 3.0 mi Calm Calm - N/A   Overcast
5:15 AM 64.4 °F 64.4 °F 100% 29.79 in 1.8 mi Calm Calm - N/A   Overcast
5:25 AM 64.4 °F 64.4 °F 100% 29.79 in 1.0 mi Calm Calm - N/A   Overcast
5:52 AM 64.9 °F 64.0 °F 97% 29.79 in 0.8 mi Calm Calm - N/A   Overcast
6:03 AM 64.4 °F 64.4 °F 100% 29.79 in 0.2 mi Calm Calm - N/A Fog Fog
6:29 AM 64.4 °F 64.4 °F 100% 29.79 in 1.0 mi Calm Calm - N/A   Mist
6:32 AM 64.4 °F 64.4 °F 100% 29.79 in 2.0 mi Calm Calm - N/A   Overcast
6:44 AM 64.4 °F 64.4 °F 100% 29.78 in 1.5 mi Calm Calm - N/A   Overcast
6:48 AM 64.4 °F 64.4 °F 100% 29.79 in 3.0 mi Calm Calm - N/A   Overcast
6:52 AM 64.9 °F 64.0 °F 97% 29.78 in 4.0 mi Calm Calm - N/A   Overcast
7:52 AM 68.0 °F 64.9 °F 90% 29.79 in 9.0 mi Calm Calm - N/A   Mostly Cloudy
8:03 AM 68.0 °F 64.4 °F 88% 29.81 in 10.0 mi Calm Calm - N/A   Scattered Clouds
8:30 AM 69.8 °F 64.4 °F 83% 29.82 in 9.0 mi Calm Calm - N/A   Mostly Cloudy
8:39 AM 69.8 °F 64.4 °F 83% 29.82 in 9.0 mi Calm Calm - N/A   Mostly Cloudy
8:47 AM 69.8 °F 64.4 °F 83% 29.82 in 10.0 mi Calm Calm - N/A   Mostly Cloudy
8:52 AM 69.1 °F 64.9 °F 87% 29.81 in 10.0 mi Calm Calm - N/A   Mostly Cloudy
9:24 AM 69.8 °F 64.4 °F 83% 29.81 in 10.0 mi Calm Calm - 0.00 in Rain Light Rain
9:52 AM 70.0 °F 66.0 °F 87% 29.80 in 10.0 mi Calm Calm - 0.00 in Rain Light Rain
10:13 AM 71.6 °F 66.2 °F 83% 29.81 in 8.0 mi Calm Calm - 0.00 in Rain Light Rain
10:52 AM 73.9 °F 66.9 °F 79% 29.80 in 10.0 mi Calm Calm - 0.00 in   Mostly Cloudy
11:09 AM 73.4 °F 66.2 °F 78% 29.81 in 10.0 mi Calm Calm - N/A   Scattered Clouds
11:52 AM 75.0 °F 66.9 °F 76% 29.79 in 10.0 mi Calm Calm - N/A   Scattered Clouds
12:38 PM 73.4 °F 66.2 °F 78% 29.81 in 10.0 mi Calm Calm - N/A Thunderstorm Mostly Cloudy
12:52 PM 73.0 °F 68.0 °F 84% 29.80 in 6.0 mi Calm Calm - 0.01 in Rain Light Rain
1:52 PM 73.0 °F 68.0 °F 84% 29.80 in 10.0 mi Calm Calm - 0.00 in   Mostly Cloudy
2:52 PM 73.0 °F 68.0 °F 84% 29.80 in 10.0 mi West 3.5 mph - N/A   Mostly Cloudy
3:52 PM 73.9 °F 66.9 °F 79% 29.79 in 10.0 mi Calm Calm - N/A   Clear
4:48 PM 71.6 °F 64.4 °F 78% 29.81 in 10.0 mi Variable 5.8 mph - N/A   Overcast
4:52 PM 72.0 °F 64.9 °F 78% 29.80 in 10.0 mi WNW 3.5 mph - N/A   Overcast
5:13 PM 71.6 °F 66.2 °F 83% 29.80 in 10.0 mi Calm Calm - N/A   Overcast
5:52 PM 75.9 °F 64.0 °F 67% 29.79 in 10.0 mi SW 3.5 mph - N/A   Partly Cloudy
6:52 PM 75.0 °F 64.0 °F 69% 29.81 in 10.0 mi Calm Calm - N/A   Partly Cloudy
7:52 PM 73.9 °F 66.0 °F 76% 29.82 in 10.0 mi South 3.5 mph - N/A   Overcast
8:52 PM 66.9 °F 63.0 °F 87% 29.83 in 10.0 mi Calm Calm - N/A   Partly Cloudy
9:52 PM 63.0 °F 61.0 °F 93% 29.85 in 10.0 mi Calm Calm - N/A   Clear
10:52 PM 63.0 °F 61.0 °F 93% 29.84 in 10.0 mi Calm Calm - N/A   Mostly Cloudy
11:52 PM 63.0 °F 61.0 °F 93% 29.83 in 10.0 mi Calm Calm - N/A   Scattered Clouds